QPF
0.02 0.02 0.02 0.02 0.02 0.02 0.01 0.02 0.02 0.02 0.02 0.03 0.02 0.02 0.01 0.01 0.00 0.00 0.01 0.00 0.00 0.00 0.00 0.00 0.00 0.00 0.00 0.00 0.01 0.01 0.01 0.00 0.00 0.00 0.00 0.00 0.01 0.00 0.00 0.00 0.00 0.00 0.01 0.01
0.02 0.02 0.01 0.02 0.02 0.02 0.01 0.01 0.01 0.01 0.02 0.03 0.02 0.02 0.02 0.01 0.01 0.00 0.01 0.00 0.00 0.00 0.00 0.00 0.00 0.00 0.00 0.00 0.00 0.00 0.00 0.00 0.00 0.00 0.00 0.00 0.01 0.01 0.01 0.01 0.00 0.00 0.00 0.00
0.02 0.02 0.01 0.03 0.03 0.02 0.02 0.02 0.02 0.01 0.02 0.03 0.03 0.03 0.03 0.01 0.01 0.01 0.01 0.00 0.00 0.00 0.00 0.00 0.00 0.00 0.00 0.00 0.00 0.00 0.00 0.00 0.00 0.00 0.00 0.00 0.00 0.01 0.01 0.01 0.01 0.00 0.01 0.00
0.02 0.02 0.04 0.04 0.02 0.02 0.02 0.03 0.03 0.02 0.02 0.02 0.03 0.03 0.03 0.02 0.01 0.01 0.01 0.01 0.00 0.00 0.00 0.00 0.00 0.00 0.00 0.00 0.00 0.00 0.00 0.00 0.00 0.00 0.00 0.00 0.00 0.01 0.01 0.01 0.01 0.01 0.01 0.01
0.02 0.03 0.04 0.02 0.01 0.02 0.02 0.03 0.03 0.02 0.02 0.02 0.02 0.02 0.03 0.02 0.02 0.02 0.01 0.01 0.01 0.00 0.00 0.00 0.00 0.00 0.00 0.00 0.00 0.00 0.00 0.00 0.00 0.00 0.00 0.00 0.01 0.01 0.01 0.01 0.01 0.01 0.01 0.01
0.03 0.03 0.03 0.02 0.01 0.01 0.02 0.03 0.02 0.02 0.01 0.01 0.02 0.02 0.03 0.02 0.01 0.02 0.01 0.01 0.01 0.00 0.00 0.00 0.00 0.00 0.00 0.00 0.00 0.00 0.00 0.01 0.01 0.01 0.01 0.00 0.01 0.01 0.01 0.01 0.02 0.02 0.02 0.02
0.03 0.02 0.02 0.02 0.01 0.01 0.03 0.03 0.02 0.02 0.01 0.02 0.02 0.02 0.03 0.02 0.02 0.02 0.02 0.01 0.01 0.00 0.00 0.00 0.00 0.00 0.00 0.00 0.00 0.00 0.00 0.00 0.00 0.01 0.01 0.01 0.01 0.01 0.01 0.01 0.01 0.01 0.01 0.01
0.02 0.02 0.02 0.01 0.02 0.02 0.03 0.02 0.02 0.02 0.01 0.01 0.02 0.02 0.03 0.02 0.02 0.02 0.02 0.02 0.01 0.01 0.00 0.00 0.00 0.00 0.00 0.00 0.00 0.00 0.00 0.00 0.00 0.00 0.00 0.00 0.01 0.01 0.01 0.01 0.01 0.01 0.01 0.01
0.02 0.02 0.02 0.02 0.02 0.02 0.02 0.01 0.01 0.02 0.01 0.01 0.02 0.02 0.02 0.02 0.02 0.02 0.03 0.02 0.02 0.02 0.01 0.01 0.00 0.00 0.00 0.00 0.00 0.00 0.00 0.00 0.00 0.00 0.00 0.00 0.00 0.01 0.01 0.01 0.01 0.01 0.01 0.02
0.02 0.02 0.02 0.02 0.02 0.02 0.01 0.01 0.01 0.01 0.01 0.01 0.02 0.02 0.02 0.02 0.02 0.02 0.03 0.03 0.02 0.02 0.02 0.01 0.01 0.01 0.00 0.00 0.00 0.00 0.00 0.00 0.00 0.00 0.00 0.00 0.00 0.01 0.01 0.01 0.01 0.01 0.02 0.02
0.02 0.01 0.01 0.01 0.01 0.02 0.02 0.02 0.01 0.01 0.01 0.01 0.01 0.02 0.02 0.02 0.02 0.02 0.03 0.03 0.02 0.02 0.02 0.02 0.01 0.01 0.01 0.01 0.01 0.01 0.01 0.00 0.00 0.00 0.00 0.00 0.01 0.01 0.01 0.01 0.02 0.02 0.02 0.02
0.01 0.01 0.01 0.01 0.02 0.02 0.02 0.02 0.02 0.02 0.02 0.02 0.02 0.02 0.02 0.02 0.03 0.03 0.03 0.03 0.03 0.02 0.02 0.02 0.01 0.01 0.01 0.01 0.01 0.01 0.01 0.01 0.00 0.00 0.00 0.01 0.01 0.01 0.02 0.02 0.02 0.02 0.03 0.03
0.01 0.01 0.01 0.01 0.01 0.01 0.01 0.02 0.02 0.02 0.02 0.02 0.02 0.02 0.02 0.02 0.03 0.03 0.03 0.03 0.02 0.02 0.02 0.01 0.01 0.01 0.01 0.01 0.01 0.01 0.01 0.01 0.01 0.01 0.01 0.01 0.01 0.01 0.02 0.02 0.02 0.02 0.02 0.03
0.00 0.00 0.01 0.01 0.01 0.01 0.01 0.01 0.01 0.01 0.02 0.02 0.02 0.02 0.02 0.02 0.02 0.02 0.03 0.03 0.02 0.02 0.02 0.01 0.01 0.01 0.01 0.01 0.01 0.01 0.01 0.01 0.01 0.01 0.01 0.01 0.01 0.02 0.02 0.02 0.01 0.02 0.02 0.02
0.01 0.01 0.01 0.01 0.01 0.01 0.01 0.01 0.01 0.01 0.02 0.02 0.02 0.02 0.02 0.02 0.02 0.02 0.02 0.02 0.02 0.02 0.02 0.02 0.02 0.02 0.02 0.02 0.02 0.02 0.01 0.01 0.01 0.01 0.02 0.02 0.02 0.02 0.02 0.01 0.01 0.01 0.01 0.01
0.01 0.01 0.01 0.01 0.01 0.01 0.01 0.01 0.01 0.01 0.01 0.01 0.02 0.02 0.02 0.02 0.02 0.02 0.02 0.03 0.03 0.03 0.03 0.02 0.02 0.02 0.02 0.02 0.02 0.02 0.02 0.02 0.01 0.02 0.02 0.02 0.02 0.02 0.02 0.01 0.01 0.00 0.00 0.01
0.01 0.01 0.01 0.01 0.01 0.01 0.01 0.01 0.01 0.01 0.01 0.01 0.02 0.02 0.01 0.02 0.02 0.02 0.02 0.03 0.03 0.03 0.03 0.03 0.03 0.02 0.02 0.02 0.02 0.02 0.02 0.02 0.02 0.02 0.02 0.02 0.02 0.01 0.01 0.01 0.01 0.01 0.01 0.01
0.01 0.01 0.01 0.01 0.01 0.01 0.01 0.01 0.01 0.01 0.01 0.01 0.01 0.01 0.01 0.01 0.02 0.02 0.02 0.02 0.02 0.02 0.02 0.02 0.02 0.02 0.02 0.02 0.02 0.02 0.02 0.02 0.02 0.02 0.02 0.01 0.01 0.01 0.01 0.01 0.01 0.01 0.01 0.01
0.01 0.01 0.01 0.00 0.00 0.00 0.01 0.01 0.01 0.01 0.01 0.01 0.01 0.01 0.01 0.01 0.02 0.02 0.02 0.02 0.02 0.02 0.02 0.02 0.02 0.02 0.02 0.02 0.02 0.02 0.02 0.02 0.02 0.02 0.01 0.01 0.01 0.01 0.01 0.01 0.01 0.01 0.01 0.01
0.00 0.00 0.00 0.00 0.00 0.00 0.01 0.01 0.01 0.01 0.01 0.01 0.01 0.01 0.01 0.01 0.01 0.02 0.02 0.02 0.02 0.02 0.02 0.02 0.01 0.01 0.01 0.01 0.01 0.02 0.02 0.02 0.02 0.01 0.01 0.01 0.01 0.01 0.01 0.01 0.01 0.01 0.02 0.02
0.00 0.00 0.00 0.00 0.00 0.00 0.01 0.01 0.02 0.01 0.01 0.01 0.01 0.01 0.01 0.01 0.01 0.01 0.01 0.02 0.02 0.02 0.01 0.01 0.01 0.01 0.01 0.01 0.01 0.01 0.01 0.01 0.02 0.01 0.01 0.01 0.01 0.01 0.01 0.01 0.01 0.01 0.02 0.02
0.00 0.00 0.00 0.00 0.00 0.00 0.01 0.01 0.01 0.01 0.01 0.01 0.01 0.01 0.01 0.01 0.01 0.01 0.01 0.01 0.02 0.02 0.01 0.01 0.01 0.02 0.01 0.02 0.01 0.01 0.01 0.01 0.01 0.01 0.01 0.01 0.01 0.01 0.01 0.01 0.01 0.01 0.01 0.02
0.00 0.00 0.00 0.00 0.00 0.00 0.01 0.01 0.01 0.01 0.01 0.01 0.01 0.01 0.01 0.01 0.01 0.01 0.01 0.01 0.01 0.01 0.01 0.01 0.02 0.02 0.02 0.02 0.01 0.01 0.01 0.01 0.01 0.01 0.01 0.01 0.01 0.01 0.01 0.01 0.01 0.01 0.01 0.02
0.00 0.00 0.00 0.00 0.00 0.01 0.01 0.01 0.01 0.01 0.01 0.01 0.01 0.01 0.01 0.01 0.01 0.00 0.01 0.01 0.01 0.01 0.01 0.01 0.02 0.02 0.02 0.02 0.01 0.01 0.01 0.01 0.01 0.01 0.01 0.01 0.01 0.01 0.01 0.01 0.01 0.01 0.01 0.01
0.00 0.00 0.00 0.00 0.00 0.01 0.01 0.01 0.01 0.01 0.01 0.01 0.01 0.01 0.01 0.01 0.01 0.00 0.00 0.01 0.01 0.01 0.01 0.01 0.01 0.01 0.01 0.01 0.01 0.01 0.01 0.01 0.01 0.01 0.01 0.01 0.01 0.01 0.01 0.01 0.01 0.01 0.01 0.01
0.01 0.00 0.01 0.01 0.01 0.01 0.01 0.01 0.01 0.01 0.01 0.01 0.01 0.01 0.01 0.01 0.01 0.01 0.01 0.01 0.01 0.01 0.01 0.01 0.01 0.01 0.01 0.01 0.01 0.01 0.01 0.01 0.01 0.01 0.01 0.01 0.01 0.01 0.01 0.01 0.01 0.01 0.01 0.01
0.01 0.01 0.01 0.01 0.01 0.01 0.01 0.01 0.01 0.01 0.01 0.01 0.01 0.01 0.01 0.01 0.01 0.01 0.01 0.01 0.01 0.01 0.01 0.01 0.02 0.02 0.01 0.01 0.01 0.01 0.02 0.02 0.01 0.01 0.01 0.01 0.01 0.01 0.01 0.01 0.01 0.01 0.01 0.01
MSLP
1012.18 1010.64 1009.17 1007.82 1006.65 1005.70 1005.00 1004.57 1004.43 1004.57 1004.97 1005.59 1006.37 1007.25 1008.13 1008.95 1009.64 1010.15 1010.46 1010.56 1010.48 1010.28 1010.00 1009.72 1009.49 1009.33 1009.28 1009.35 1009.51 1009.77 1010.09 1010.47 1010.89 1011.36 1011.86 1012.42 1013.02 1013.66 1014.34 1015.02 1015.70 1016.35 1016.95 1017.48
1013.18 1011.77 1010.36 1009.00 1007.75 1006.68 1005.83 1005.25 1004.98 1005.01 1005.34 1005.93 1006.71 1007.62 1008.56 1009.44 1010.20 1010.78 1011.16 1011.33 1011.32 1011.18 1010.97 1010.74 1010.55 1010.42 1010.37 1010.41 1010.54 1010.73 1010.97 1011.26 1011.58 1011.94 1012.35 1012.82 1013.35 1013.93 1014.56 1015.21 1015.86 1016.49 1017.06 1017.58
1014.22 1012.99 1011.69 1010.38 1009.12 1007.97 1007.02 1006.30 1005.89 1005.79 1006.01 1006.51 1007.24 1008.12 1009.05 1009.95 1010.75 1011.38 1011.83 1012.07 1012.15 1012.09 1011.96 1011.81 1011.67 1011.58 1011.56 1011.60 1011.70 1011.84 1012.02 1012.22 1012.46 1012.73 1013.06 1013.46 1013.92 1014.45 1015.03 1015.65 1016.27 1016.87 1017.42 1017.90
1015.26 1014.22 1013.07 1011.85 1010.63 1009.47 1008.45 1007.65 1007.12 1006.90 1007.00 1007.39 1008.03 1008.84 1009.72 1010.61 1011.40 1012.06 1012.54 1012.84 1012.99 1013.02 1012.97 1012.89 1012.82 1012.79 1012.80 1012.85 1012.93 1013.05 1013.18 1013.32 1013.50 1013.71 1013.98 1014.32 1014.73 1015.23 1015.77 1016.36 1016.95 1017.52 1018.03 1018.48
1016.25 1015.37 1014.37 1013.28 1012.14 1011.02 1010.01 1009.17 1008.57 1008.26 1008.26 1008.55 1009.09 1009.81 1010.62 1011.44 1012.20 1012.85 1013.34 1013.68 1013.87 1013.96 1013.98 1013.97 1013.97 1013.98 1014.03 1014.10 1014.19 1014.29 1014.40 1014.52 1014.66 1014.83 1015.07 1015.37 1015.76 1016.22 1016.75 1017.30 1017.87 1018.40 1018.88 1019.28
1017.14 1016.40 1015.54 1014.58 1013.54 1012.50 1011.53 1010.71 1010.10 1009.75 1009.68 1009.89 1010.34 1010.97 1011.70 1012.45 1013.15 1013.76 1014.24 1014.58 1014.80 1014.92 1014.99 1015.04 1015.08 1015.14 1015.22 1015.32 1015.43 1015.54 1015.65 1015.76 1015.89 1016.05 1016.27 1016.57 1016.94 1017.38 1017.88 1018.41 1018.94 1019.44 1019.87 1020.23
1017.92 1017.28 1016.52 1015.67 1014.75 1013.81 1012.91 1012.14 1011.56 1011.21 1011.12 1011.28 1011.67 1012.22 1012.87 1013.54 1014.18 1014.74 1015.18 1015.51 1015.74 1015.88 1015.98 1016.07 1016.15 1016.25 1016.37 1016.51 1016.64 1016.77 1016.89 1017.02 1017.15 1017.32 1017.54 1017.83 1018.19 1018.61 1019.09 1019.59 1020.08 1020.54 1020.92 1021.23
1018.59 1018.00 1017.32 1016.56 1015.73 1014.88 1014.08 1013.38 1012.85 1012.53 1012.44 1012.58 1012.93 1013.43 1014.01 1014.63 1015.21 1015.72 1016.13 1016.44 1016.66 1016.82 1016.94 1017.05 1017.17 1017.31 1017.47 1017.64 1017.80 1017.96 1018.11 1018.25 1018.40 1018.58 1018.80 1019.08 1019.43 1019.83 1020.28 1020.74 1021.19 1021.59 1021.93 1022.18
1019.18 1018.61 1017.98 1017.28 1016.52 1015.74 1015.01 1014.39 1013.91 1013.63 1013.56 1013.70 1014.03 1014.50 1015.04 1015.61 1016.15 1016.62 1017.01 1017.31 1017.54 1017.71 1017.85 1018.00 1018.15 1018.32 1018.51 1018.71 1018.91 1019.09 1019.27 1019.43 1019.60 1019.78 1020.00 1020.27 1020.59 1020.96 1021.36 1021.77 1022.17 1022.52 1022.80 1023.01
1019.74 1019.19 1018.58 1017.90 1017.18 1016.46 1015.78 1015.20 1014.76 1014.51 1014.46 1014.61 1014.93 1015.37 1015.90 1016.44 1016.96 1017.42 1017.81 1018.11 1018.35 1018.54 1018.72 1018.89 1019.07 1019.28 1019.50 1019.72 1019.95 1020.16 1020.35 1020.53 1020.70 1020.88 1021.09 1021.33 1021.61 1021.94 1022.28 1022.64 1022.98 1023.27 1023.50 1023.66
1020.34 1019.81 1019.21 1018.55 1017.84 1017.13 1016.47 1015.90 1015.48 1015.24 1015.19 1015.33 1015.65 1016.08 1016.59 1017.13 1017.64 1018.11 1018.51 1018.83 1019.10 1019.32 1019.53 1019.73 1019.94 1020.17 1020.41 1020.66 1020.90 1021.13 1021.33 1021.52 1021.69 1021.86 1022.04 1022.25 1022.49 1022.75 1023.04 1023.32 1023.60 1023.83 1024.01 1024.12
1021.03 1020.54 1019.96 1019.30 1018.60 1017.88 1017.21 1016.63 1016.20 1015.94 1015.87 1015.99 1016.28 1016.70 1017.19 1017.72 1018.24 1018.72 1019.14 1019.50 1019.79 1020.05 1020.28 1020.51 1020.75 1020.99 1021.25 1021.51 1021.76 1021.99 1022.19 1022.38 1022.54 1022.69 1022.85 1023.02 1023.21 1023.41 1023.63 1023.85 1024.05 1024.22 1024.35 1024.43
1021.84 1021.40 1020.86 1020.22 1019.51 1018.79 1018.09 1017.48 1017.01 1016.71 1016.60 1016.68 1016.94 1017.32 1017.80 1018.32 1018.84 1019.33 1019.76 1020.14 1020.46 1020.74 1020.99 1021.24 1021.48 1021.74 1022.00 1022.25 1022.50 1022.73 1022.93 1023.11 1023.26 1023.40 1023.53 1023.66 1023.80 1023.95 1024.10 1024.26 1024.39 1024.51 1024.58 1024.62
1022.75 1022.39 1021.91 1021.30 1020.61 1019.87 1019.16 1018.52 1018.00 1017.65 1017.49 1017.51 1017.72 1018.06 1018.50 1018.99 1019.49 1019.97 1020.41 1020.79 1021.12 1021.41 1021.66 1021.91 1022.15 1022.39 1022.64 1022.88 1023.12 1023.34 1023.54 1023.71 1023.86 1023.98 1024.10 1024.20 1024.30 1024.40 1024.50 1024.59 1024.67 1024.73 1024.75 1024.75
1023.70 1023.44 1023.03 1022.48 1021.82 1021.10 1020.38 1019.72 1019.17 1018.78 1018.56 1018.52 1018.66 1018.95 1019.33 1019.78 1020.24 1020.69 1021.11 1021.47 1021.78 1022.05 1022.29 1022.51 1022.73 1022.95 1023.17 1023.40 1023.62 1023.83 1024.02 1024.20 1024.34 1024.47 1024.57 1024.65 1024.73 1024.79 1024.85 1024.89 1024.91 1024.92 1024.90 1024.85
1024.61 1024.45 1024.13 1023.65 1023.06 1022.38 1021.69 1021.03 1020.47 1020.04 1019.78 1019.69 1019.77 1019.98 1020.30 1020.69 1021.09 1021.49 1021.85 1022.17 1022.44 1022.67 1022.87 1023.05 1023.22 1023.41 1023.60 1023.80 1024.00 1024.20 1024.40 1024.57 1024.72 1024.85 1024.95 1025.03 1025.09 1025.13 1025.15 1025.15 1025.13 1025.09 1025.02 1024.94
1025.37 1025.31 1025.09 1024.71 1024.19 1023.59 1022.95 1022.33 1021.78 1021.35 1021.07 1020.94 1020.96 1021.11 1021.36 1021.67 1022.00 1022.32 1022.61 1022.87 1023.07 1023.24 1023.38 1023.50 1023.63 1023.77 1023.92 1024.10 1024.28 1024.47 1024.66 1024.84 1025.00 1025.14 1025.24 1025.32 1025.37 1025.39 1025.39 1025.35 1025.30 1025.21 1025.11 1024.99
1025.93 1025.95 1025.82 1025.54 1025.13 1024.62 1024.06 1023.50 1023.00 1022.60 1022.31 1022.16 1022.14 1022.23 1022.41 1022.64 1022.89 1023.13 1023.34 1023.51 1023.64 1023.74 1023.81 1023.88 1023.95 1024.05 1024.16 1024.30 1024.47 1024.65 1024.84 1025.01 1025.18 1025.32 1025.43 1025.50 1025.54 1025.55 1025.52 1025.46 1025.37 1025.26 1025.12 1024.97
1026.23 1026.33 1026.28 1026.10 1025.79 1025.39 1024.93 1024.46 1024.03 1023.67 1023.40 1023.25 1023.20 1023.25 1023.36 1023.52 1023.69 1023.84 1023.97 1024.06 1024.12 1024.14 1024.15 1024.17 1024.19 1024.24 1024.32 1024.43 1024.58 1024.74 1024.91 1025.08 1025.24 1025.38 1025.48 1025.54 1025.57 1025.56 1025.51 1025.43 1025.32 1025.18 1025.02 1024.85
1026.31 1026.46 1026.49 1026.40 1026.19 1025.89 1025.54 1025.17 1024.81 1024.51 1024.28 1024.14 1024.08 1024.09 1024.15 1024.24 1024.34 1024.42 1024.47 1024.49 1024.47 1024.44 1024.40 1024.36 1024.34 1024.35 1024.40 1024.49 1024.60 1024.74 1024.89 1025.04 1025.18 1025.30 1025.38 1025.42 1025.43 1025.40 1025.33 1025.23 1025.11 1024.96 1024.79 1024.61
1026.22 1026.42 1026.51 1026.50 1026.38 1026.18 1025.92 1025.64 1025.36 1025.12 1024.93 1024.80 1024.74 1024.72 1024.74 1024.78 1024.81 1024.83 1024.82 1024.77 1024.71 1024.62 1024.54 1024.46 1024.41 1024.39 1024.41 1024.47 1024.55 1024.66 1024.78 1024.90 1025.00 1025.08 1025.13 1025.14 1025.12 1025.06 1024.97 1024.86 1024.73 1024.58 1024.42 1024.25
1026.06 1026.29 1026.43 1026.48 1026.44 1026.31 1026.13 1025.93 1025.72 1025.53 1025.37 1025.26 1025.19 1025.15 1025.14 1025.13 1025.11 1025.07 1025.01 1024.92 1024.81 1024.69 1024.58 1024.48 1024.40 1024.36 1024.35 1024.38 1024.43 1024.50 1024.57 1024.64 1024.70 1024.73 1024.73 1024.71 1024.65 1024.57 1024.47 1024.35 1024.22 1024.08 1023.94 1023.79
1025.90 1026.16 1026.33 1026.43 1026.43 1026.36 1026.24 1026.09 1025.93 1025.77 1025.64 1025.54 1025.46 1025.40 1025.35 1025.30 1025.24 1025.16 1025.06 1024.94 1024.80 1024.66 1024.53 1024.41 1024.32 1024.25 1024.22 1024.21 1024.23 1024.25 1024.28 1024.30 1024.30 1024.28 1024.23 1024.17 1024.08 1023.98 1023.86 1023.74 1023.63 1023.51 1023.39 1023.27
1025.78 1026.06 1026.26 1026.38 1026.41 1026.38 1026.29 1026.17 1026.04 1025.91 1025.78 1025.67 1025.58 1025.50 1025.42 1025.33 1025.24 1025.12 1024.99 1024.84 1024.68 1024.52 1024.38 1024.25 1024.14 1024.06 1024.01 1023.97 1023.95 1023.94 1023.91 1023.88 1023.83 1023.76 1023.67 1023.56 1023.45 1023.33 1023.21 1023.10 1023.00 1022.91 1022.82 1022.74
1025.71 1025.99 1026.20 1026.33 1026.38 1026.36 1026.28 1026.18 1026.06 1025.93 1025.80 1025.69 1025.58 1025.47 1025.36 1025.24 1025.11 1024.96 1024.80 1024.63 1024.46 1024.29 1024.14 1024.00 1023.89 1023.79 1023.72 1023.66 1023.61 1023.55 1023.49 1023.41 1023.32 1023.21 1023.08 1022.95 1022.82 1022.69 1022.57 1022.48 1022.39 1022.33 1022.27 1022.22
1025.62 1025.90 1026.10 1026.22 1026.27 1026.25 1026.18 1026.08 1025.96 1025.83 1025.70 1025.57 1025.44 1025.31 1025.17 1025.03 1024.87 1024.70 1024.51 1024.33 1024.14 1023.97 1023.80 1023.66 1023.54 1023.44 1023.35 1023.27 1023.20 1023.12 1023.02 1022.92 1022.79 1022.65 1022.51 1022.36 1022.22 1022.09 1021.98 1021.89 1021.83 1021.78 1021.74 1021.71
1025.44 1025.70 1025.88 1025.98 1026.01 1025.98 1025.92 1025.82 1025.70 1025.57 1025.44 1025.30 1025.16 1025.02 1024.86 1024.69 1024.51 1024.32 1024.12 1023.92 1023.73 1023.54 1023.37 1023.23 1023.10 1022.99 1022.90 1022.81 1022.72 1022.63 1022.52 1022.40 1022.26 1022.11 1021.96 1021.80 1021.66 1021.53 1021.42 1021.34 1021.29 1021.25 1021.22 1021.20
Thickness
5415 5425 5427 5432 5438 5443 5441 5441 5440 5446 5449 5455 5454 5456 5458 5460 5462 5465 5469 5472 5475 5476 5478 5481 5483 5486 5488 5491 5493 5495 5497 5498 5498 5499 5500 5501 5502 5502 5503 5503 5504 5504 5503 5503
5407 5420 5423 5424 5429 5434 5437 5437 5434 5435 5438 5443 5442 5442 5443 5446 5451 5454 5458 5461 5463 5464 5466 5468 5471 5473 5475 5477 5479 5481 5483 5484 5485 5486 5487 5488 5489 5489 5490 5490 5491 5491 5491 5491
5395 5406 5413 5408 5413 5420 5424 5426 5429 5430 5432 5431 5430 5432 5432 5435 5439 5442 5445 5448 5450 5452 5454 5455 5457 5460 5462 5464 5466 5467 5469 5470 5472 5473 5474 5474 5476 5476 5477 5477 5478 5479 5479 5479
5380 5390 5391 5400 5401 5408 5412 5413 5415 5420 5419 5421 5420 5421 5422 5424 5425 5428 5432 5435 5437 5439 5441 5443 5445 5446 5448 5451 5452 5454 5455 5456 5458 5459 5460 5461 5462 5463 5463 5464 5465 5466 5467 5467
5366 5368 5380 5391 5391 5390 5395 5398 5402 5405 5407 5407 5407 5409 5409 5413 5416 5417 5419 5421 5424 5427 5429 5430 5432 5433 5435 5436 5438 5440 5441 5443 5444 5446 5447 5448 5449 5449 5450 5451 5452 5453 5454 5455
5355 5363 5371 5380 5381 5383 5387 5387 5393 5395 5397 5397 5400 5398 5400 5403 5405 5406 5408 5410 5413 5414 5416 5417 5419 5420 5422 5423 5424 5426 5428 5430 5431 5433 5434 5434 5435 5436 5436 5437 5438 5439 5441 5442
5348 5348 5359 5365 5368 5379 5378 5381 5384 5387 5389 5389 5389 5393 5393 5393 5394 5395 5397 5398 5401 5402 5403 5404 5406 5408 5408 5410 5411 5413 5415 5416 5418 5419 5420 5421 5422 5422 5423 5424 5425 5426 5428 5429
5336 5341 5352 5357 5361 5364 5367 5371 5374 5377 5379 5379 5380 5382 5382 5383 5384 5385 5386 5387 5389 5390 5390 5391 5393 5395 5396 5396 5398 5400 5401 5403 5404 5406 5407 5408 5408 5409 5410 5411 5411 5412 5414 5416
5334 5343 5346 5348 5352 5357 5359 5361 5364 5366 5369 5369 5370 5371 5372 5373 5373 5374 5376 5377 5378 5378 5378 5379 5380 5382 5383 5384 5385 5387 5388 5389 5391 5392 5393 5394 5395 5396 5397 5397 5398 5400 5402 5404
5330 5337 5340 5343 5345 5350 5352 5354 5357 5358 5359 5360 5360 5361 5361 5363 5363 5364 5365 5365 5367 5367 5367 5367 5368 5369 5371 5372 5373 5374 5375 5376 5377 5378 5380 5381 5382 5384 5385 5386 5387 5389 5391 5392
5324 5331 5335 5340 5340 5343 5346 5347 5349 5350 5350 5350 5351 5351 5352 5352 5353 5354 5355 5355 5356 5356 5357 5356 5357 5358 5359 5360 5362 5362 5363 5363 5364 5366 5367 5368 5370 5371 5373 5375 5377 5378 5380 5381
5325 5328 5326 5330 5333 5336 5338 5339 5340 5340 5340 5340 5341 5342 5342 5342 5343 5344 5344 5345 5345 5345 5345 5345 5346 5347 5348 5349 5351 5351 5352 5352 5353 5354 5355 5357 5358 5360 5363 5365 5367 5369 5371 5372
5323 5324 5323 5326 5327 5328 5329 5330 5331 5331 5331 5331 5332 5333 5333 5333 5333 5333 5333 5334 5335 5335 5335 5335 5336 5336 5338 5339 5340 5341 5342 5342 5343 5344 5345 5347 5348 5350 5351 5354 5356 5358 5360 5362
5317 5317 5317 5319 5320 5320 5321 5322 5322 5322 5322 5323 5323 5323 5323 5323 5323 5323 5323 5324 5325 5325 5325 5326 5326 5327 5328 5330 5331 5332 5332 5333 5334 5335 5336 5337 5338 5339 5340 5342 5344 5346 5348 5350
5311 5311 5311 5312 5312 5312 5312 5312 5312 5312 5313 5313 5313 5313 5313 5313 5313 5314 5314 5315 5315 5316 5316 5317 5318 5318 5320 5321 5322 5323 5323 5324 5325 5326 5327 5328 5329 5330 5331 5332 5334 5335 5337 5339
5304 5304 5303 5304 5304 5304 5304 5304 5303 5304 5304 5304 5304 5304 5304 5304 5304 5304 5305 5305 5306 5307 5308 5308 5309 5310 5312 5313 5313 5314 5315 5317 5318 5319 5319 5320 5321 5322 5322 5323 5324 5326 5327 5328
5296 5296 5295 5295 5296 5296 5296 5296 5296 5296 5296 5296 5296 5296 5296 5296 5296 5295 5295 5296 5297 5298 5299 5300 5301 5303 5304 5305 5306 5306 5307 5309 5311 5311 5311 5312 5312 5313 5314 5315 5315 5317 5318 5319
5292 5292 5291 5290 5290 5290 5290 5290 5289 5289 5289 5289 5288 5288 5288 5288 5288 5288 5287 5288 5288 5289 5290 5292 5294 5295 5296 5297 5298 5299 5300 5301 5302 5302 5303 5303 5304 5305 5306 5306 5307 5308 5310 5311
5286 5285 5285 5285 5284 5284 5283 5283 5283 5282 5282 5281 5281 5280 5280 5280 5280 5280 5279 5280 5280 5281 5283 5284 5287 5287 5288 5289 5291 5291 5292 5293 5294 5294 5295 5296 5297 5297 5298 5298 5299 5300 5301 5303
5281 5281 5279 5278 5277 5276 5276 5276 5275 5275 5275 5274 5274 5273 5273 5272 5273 5273 5273 5273 5274 5275 5276 5277 5278 5279 5280 5281 5283 5284 5284 5285 5286 5287 5288 5288 5289 5289 5290 5291 5292 5293 5294 5295
5275 5274 5273 5271 5270 5270 5270 5269 5269 5268 5269 5268 5267 5267 5266 5266 5266 5266 5266 5267 5268 5269 5270 5271 5272 5272 5273 5274 5276 5276 5277 5278 5279 5279 5280 5281 5282 5282 5283 5284 5285 5286 5287 5288
5268 5267 5266 5265 5264 5263 5264 5263 5263 5263 5263 5262 5261 5261 5260 5259 5259 5259 5260 5260 5262 5263 5264 5264 5265 5266 5267 5268 5268 5269 5270 5270 5271 5272 5273 5274 5274 5275 5276 5277 5278 5279 5281 5282
5263 5262 5260 5260 5259 5258 5257 5257 5257 5257 5256 5256 5256 5255 5254 5254 5253 5253 5254 5255 5256 5257 5258 5258 5259 5260 5261 5261 5261 5262 5262 5263 5264 5265 5266 5267 5268 5269 5270 5271 5272 5273 5275 5277
5257 5256 5255 5254 5252 5251 5251 5251 5251 5251 5251 5251 5250 5250 5248 5248 5248 5248 5249 5250 5251 5251 5251 5252 5253 5254 5255 5254 5254 5255 5255 5256 5257 5258 5259 5260 5261 5263 5264 5265 5266 5268 5270 5272
5253 5251 5249 5247 5246 5247 5247 5246 5245 5245 5245 5245 5245 5244 5243 5243 5242 5242 5242 5243 5244 5245 5245 5245 5247 5248 5247 5247 5247 5248 5249 5249 5250 5251 5253 5254 5256 5257 5258 5260 5261 5263 5265 5267
5247 5246 5245 5244 5243 5243 5242 5241 5240 5240 5240 5240 5240 5239 5239 5238 5237 5236 5236 5236 5237 5239 5239 5239 5239 5240 5240 5241 5241 5242 5243 5244 5244 5246 5247 5249 5250 5252 5253 5255 5257 5259 5261 5263
5242 5241 5239 5238 5238 5237 5237 5236 5236 5236 5236 5235 5235 5234 5233 5232 5231 5231 5230 5231 5231 5232 5233 5233 5234 5234 5235 5235 5236 5237 5238 5239 5240 5241 5242 5244 5245 5247 5249 5250 5253 5255 5257 5259